Find Geely Xingzuo 03 zu 09 xing

NORAD ID: 61019 Int'l Des: 2024-159 Owner: GEESP Country: CN Constellation: geesatcom operational
LEOCIRCULAR

Live Position

Loading 3D Globe...

About Geely Xingzuo 03 zu 09 xing

Description loading...

Upcoming Passes

Passes for default location (London). Set your location on the main map for personalized predictions.

Altitude History

Loading altitude history...

Two-Line Element Set

1 61019U 24159J 26105.91053880 .00000981 00000-0 14360-3 0 9991
2 61019 49.9994 11.5213 0022238 181.0120 179.0777 14.84013949 87529
Epoch: Apr 15, 2026 • Age: 12 hours

Current Status

Altitude 620.6 km
Velocity 7.55 km/s
Sub-Earth Point -40.41°S, 123.62°W
Launch Date Sep 5, 2024
Age 1.6 years
Type other

Technical Details

Classification Payload
Mass 130.00 kg
Dry Mass 130.00 kg
Total Mass 130.00 kg
Length 1.00 m
Diameter 0.50 m
Span 2.00 m
Shape Box + 2 pan
Manufacturer GWCG
Bus Type GPS100
Phase Status In Orbit
Owner/State GEESP/CN

Most Searched